Time,TemperatureF,DewpointF,PressureIn,WindDirection,WindDirectionDegrees,WindSpeedMPH,WindSpeedGustMPH,Humidity,HourlyPrecipIn,Conditions,Clouds,dailyrainin,SoftwareType,DateUTC
2013-10-07 00:00:00,63.3,62.1,30.13,SSE,163,3.0,6.0,96,0.00,,---,0.00,VWS V14.01,2013-10-07 04:00:00,
2013-10-07 00:01:00,63.3,62.1,30.13,South,169,3.0,6.0,96,0.00,,---,0.00,VWS V14.01,2013-10-07 04:01:00,
2013-10-07 00:02:00,63.3,62.1,30.13,SE,134,5.0,6.0,96,0.00,,---,0.00,VWS V14.01,2013-10-07 04:02:00,
2013-10-07 00:07:00,63.4,62.2,30.13,ESE,123,3.0,7.0,96,0.00,,---,0.00,VWS V14.01,2013-10-07 04:07:00,
2013-10-07 00:12:00,63.6,62.4,30.13,SE,145,4.0,8.0,96,0.00,,---,0.00,VWS V14.01,2013-10-07 04:12:00,
2013-10-07 00:19:00,63.7,62.5,30.13,SE,141,2.0,7.0,96,0.00,,---,0.00,VWS V14.01,2013-10-07 04:19:00,
2013-10-07 00:24:00,63.8,62.6,30.13,SE,137,1.0,9.0,96,0.00,,---,0.00,VWS V14.01,2013-10-07 04:24:00,
2013-10-07 00:29:00,63.9,63.0,30.12,SE,125,4.0,10.0,97,0.00,,---,0.00,VWS V14.01,2013-10-07 04:29:00,
2013-10-07 00:34:00,64.0,63.1,30.12,ESE,122,2.0,6.0,97,0.00,,---,0.00,VWS V14.01,2013-10-07 04:34:00,
2013-10-07 00:39:00,64.1,62.9,30.12,ESE,117,1.0,9.0,96,0.00,,---,0.00,VWS V14.01,2013-10-07 04:39:00,
2013-10-07 00:44:00,64.2,63.0,30.12,ESE,106,2.0,8.0,96,0.00,,---,0.00,VWS V14.01,2013-10-07 04:44:00,
2013-10-07 00:49:00,64.3,63.1,30.12,SSE,148,3.0,12.0,96,0.00,,---,0.00,VWS V14.01,2013-10-07 04:49:00,
2013-10-07 00:54:00,64.4,63.5,30.12,SE,131,4.0,9.0,97,0.00,,---,0.00,VWS V14.01,2013-10-07 04:54:00,
2013-10-07 00:59:00,64.5,63.6,30.12,SE,141,5.0,9.0,97,0.00,,---,0.00,VWS V14.01,2013-10-07 04:59:00,
2013-10-07 01:04:00,64.6,63.7,30.12,SSE,161,1.0,12.0,97,0.00,,---,0.00,VWS V14.01,2013-10-07 05:04:00,
2013-10-07 01:09:00,64.7,63.8,30.12,ESE,121,2.0,10.0,97,0.00,,---,0.00,VWS V14.01,2013-10-07 05:09:00,
2013-10-07 01:14:00,64.7,63.8,30.12,SE,141,1.0,12.0,97,0.00,,---,0.00,VWS V14.01,2013-10-07 05:14:00,
2013-10-07 01:19:00,64.9,64.0,30.11,ESE,122,4.0,10.0,97,0.00,,---,0.00,VWS V14.01,2013-10-07 05:19:00,
2013-10-07 01:24:00,64.9,64.0,30.11,SE,135,4.0,9.0,97,0.00,,---,0.00,VWS V14.01,2013-10-07 05:24:00,
2013-10-07 01:29:00,65.0,64.1,30.12,SE,129,6.0,8.0,97,0.00,,---,0.00,VWS V14.01,2013-10-07 05:29:00,
2013-10-07 01:34:00,65.0,64.1,30.12,SE,142,5.0,7.0,97,0.00,,---,0.00,VWS V14.01,2013-10-07 05:34:00,
2013-10-07 01:39:00,65.0,64.1,30.11,SSE,152,4.0,9.0,97,0.00,,---,0.00,VWS V14.01,2013-10-07 05:39:00,
2013-10-07 01:44:00,65.1,64.2,30.11,ESE,114,3.0,7.0,97,0.00,,---,0.00,VWS V14.01,2013-10-07 05:44:00,
2013-10-07 01:49:00,65.2,64.3,30.11,SE,139,1.0,9.0,97,0.00,,---,0.00,VWS V14.01,2013-10-07 05:49:00,
2013-10-07 01:54:00,65.3,64.4,30.11,ESE,115,1.0,10.0,97,0.00,,---,0.00,VWS V14.01,2013-10-07 05:54:00,
2013-10-07 01:59:00,65.4,64.5,30.11,SE,131,7.0,10.0,97,0.00,,---,0.00,VWS V14.01,2013-10-07 05:59:00,
2013-10-07 02:04:00,65.5,64.6,30.11,SSE,161,2.0,9.0,97,0.00,,---,0.00,VWS V14.01,2013-10-07 06:04:00,
2013-10-07 02:09:00,65.6,64.7,30.10,SE,139,1.0,11.0,97,0.00,,---,0.00,VWS V14.01,2013-10-07 06:09:00,
2013-10-07 02:14:00,65.6,64.7,30.10,SE,126,2.0,11.0,97,0.00,,---,0.00,VWS V14.01,2013-10-07 06:14:00,
2013-10-07 02:19:00,65.6,64.7,30.10,SE,143,6.0,10.0,97,0.00,,---,0.00,VWS V14.01,2013-10-07 06:19:00,
2013-10-07 02:24:00,65.6,64.7,30.10,SE,137,3.0,11.0,97,0.00,,---,0.00,VWS V14.01,2013-10-07 06:24:00,
2013-10-07 02:29:00,65.6,64.4,30.09,SE,126,3.0,9.0,96,0.00,,---,0.00,VWS V14.01,2013-10-07 06:29:00,
2013-10-07 02:34:00,65.6,64.7,30.10,SE,135,3.0,8.0,97,0.00,,---,0.00,VWS V14.01,2013-10-07 06:34:00,
2013-10-07 02:39:00,65.7,64.8,30.10,SSE,152,2.0,10.0,97,0.00,,---,0.00,VWS V14.01,2013-10-07 06:39:00,
2013-10-07 02:44:00,65.6,64.7,30.10,SE,145,0.0,11.0,97,0.00,,---,0.00,VWS V14.01,2013-10-07 06:44:00,
2013-10-07 02:49:00,65.6,64.7,30.09,SE,125,0.0,11.0,97,0.00,,---,0.00,VWS V14.01,2013-10-07 06:49:00,
2013-10-07 02:54:00,65.6,64.7,30.09,ESE,121,7.0,10.0,97,0.00,,---,0.00,VWS V14.01,2013-10-07 06:54:00,
2013-10-07 02:59:00,65.6,64.7,30.09,SE,141,3.0,10.0,97,0.00,,---,0.00,VWS V14.01,2013-10-07 06:59:00,
2013-10-07 03:04:00,65.8,64.9,30.09,SSE,166,4.0,13.0,97,0.00,,---,0.00,VWS V14.01,2013-10-07 07:04:00,
2013-10-07 03:09:00,66.1,65.2,30.09,SSE,156,5.0,11.0,97,0.00,,---,0.00,VWS V14.01,2013-10-07 07:09:00,
2013-10-07 03:14:00,66.2,65.3,30.09,SSE,157,2.0,12.0,97,0.00,,---,0.00,VWS V14.01,2013-10-07 07:14:00,
2013-10-07 03:19:00,66.3,65.4,30.09,SSE,149,2.0,11.0,97,0.00,,---,0.00,VWS V14.01,2013-10-07 07:19:00,
2013-10-07 03:24:00,66.3,65.4,30.09,SSE,155,3.0,12.0,97,0.00,,---,0.00,VWS V14.01,2013-10-07 07:24:00,
2013-10-07 03:29:00,66.4,65.5,30.09,SE,136,9.0,10.0,97,0.00,,---,0.00,VWS V14.01,2013-10-07 07:29:00,
2013-10-07 03:34:00,66.3,65.4,30.08,SSE,165,9.0,15.0,97,0.00,,---,0.00,VWS V14.01,2013-10-07 07:34:00,
2013-10-07 03:39:00,66.4,65.5,30.08,SE,130,2.0,10.0,97,0.00,,---,0.00,VWS V14.01,2013-10-07 07:39:00,
2013-10-07 03:44:00,66.4,65.5,30.08,SSE,154,3.0,8.0,97,0.00,,---,0.00,VWS V14.01,2013-10-07 07:44:00,
2013-10-07 03:49:00,66.4,65.5,30.08,SSE,148,4.0,11.0,97,0.00,,---,0.00,VWS V14.01,2013-10-07 07:49:00,
2013-10-07 03:54:00,66.2,65.3,30.08,SE,143,4.0,9.0,97,0.00,,---,0.00,VWS V14.01,2013-10-07 07:54:00,
2013-10-07 03:59:00,66.1,65.2,30.08,SE,133,0.0,9.0,97,0.00,,---,0.00,VWS V14.01,2013-10-07 07:59:00,
2013-10-07 04:04:00,66.0,65.1,30.08,SSE,153,2.0,8.0,97,0.00,,---,0.00,VWS V14.01,2013-10-07 08:04:00,
2013-10-07 04:09:00,65.9,65.0,30.08,SE,126,4.0,11.0,97,0.00,,---,0.00,VWS V14.01,2013-10-07 08:09:00,
2013-10-07 04:14:00,66.0,65.4,30.08,South,179,3.0,9.0,98,0.00,,---,0.00,VWS V14.01,2013-10-07 08:14:00,
2013-10-07 04:20:00,66.1,65.5,30.08,SE,143,1.0,11.0,98,0.00,,---,0.00,VWS V14.01,2013-10-07 08:20:00,
2013-10-07 04:24:00,66.2,65.6,30.08,SSE,148,2.0,10.0,98,0.00,,---,0.00,VWS V14.01,2013-10-07 08:24:00,
2013-10-07 04:29:00,66.4,65.8,30.07,SE,134,0.0,9.0,98,0.00,,---,0.00,VWS V14.01,2013-10-07 08:29:00,
2013-10-07 04:35:00,66.4,65.8,30.07,SSE,160,1.0,1.0,98,0.00,,---,0.00,VWS V14.01,2013-10-07 08:35:00,
2013-10-07 04:40:00,66.5,65.9,30.08,SSW,195,2.0,10.0,98,0.00,,---,0.00,VWS V14.01,2013-10-07 08:40:00,
2013-10-07 04:45:00,66.5,65.9,30.07,South,180,0.0,6.0,98,0.00,,---,0.00,VWS V14.01,2013-10-07 08:45:00,
2013-10-07 04:50:00,66.5,65.9,30.07,SSE,155,2.0,3.0,98,0.00,,---,0.00,VWS V14.01,2013-10-07 08:50:00,
2013-10-07 04:55:00,66.6,66.0,30.07,SSE,167,1.0,2.0,98,0.00,,---,0.00,VWS V14.01,2013-10-07 08:55:00,
2013-10-07 05:00:00,66.7,66.1,30.07,SSE,159,6.0,6.0,98,0.01,,---,0.01,VWS V14.01,2013-10-07 09:00:00,
2013-10-07 05:05:00,66.6,66.0,30.07,SE,141,3.0,3.0,98,0.01,,---,0.01,VWS V14.01,2013-10-07 09:05:00,
2013-10-07 05:10:00,66.7,66.1,30.07,SE,141,3.0,3.0,98,0.01,,---,0.01,VWS V14.01,2013-10-07 09:10:00,
2013-10-07 05:15:00,66.7,66.1,30.07,SSE,162,2.0,3.0,98,0.01,,---,0.01,VWS V14.01,2013-10-07 09:15:00,
2013-10-07 05:20:00,66.7,66.1,30.07,SSE,166,1.0,3.0,98,0.01,,---,0.01,VWS V14.01,2013-10-07 09:20:00,
2013-10-07 05:25:00,66.7,66.1,30.07,SSE,166,3.0,5.0,98,0.01,,---,0.01,VWS V14.01,2013-10-07 09:25:00,
2013-10-07 05:32:00,66.8,66.2,30.07,SSE,167,4.0,10.0,98,0.02,,---,0.02,VWS V14.01,2013-10-07 09:32:00,
2013-10-07 05:37:00,66.8,66.2,30.07,SSE,158,12.0,15.0,98,0.02,,---,0.02,VWS V14.01,2013-10-07 09:37:00,
2013-10-07 05:42:00,66.9,66.3,30.07,SE,131,4.0,10.0,98,0.02,,---,0.02,VWS V14.01,2013-10-07 09:42:00,
2013-10-07 05:47:00,66.9,66.3,30.07,SSE,158,3.0,5.0,98,0.02,,---,0.02,VWS V14.01,2013-10-07 09:47:00,
2013-10-07 05:53:00,67.0,66.4,30.07,SSE,152,5.0,9.0,98,0.02,,---,0.02,VWS V14.01,2013-10-07 09:53:00,
2013-10-07 05:58:00,67.1,66.5,30.07,SE,129,4.0,11.0,98,0.02,,---,0.02,VWS V14.01,2013-10-07 09:58:00,
2013-10-07 06:03:00,67.2,66.6,30.07,SSE,156,1.0,8.0,98,0.01,,---,0.02,VWS V14.01,2013-10-07 10:03:00,
2013-10-07 06:08:00,67.2,66.6,30.07,South,173,6.0,11.0,98,0.01,,---,0.02,VWS V14.01,2013-10-07 10:08:00,
2013-10-07 06:13:00,67.4,67.1,30.07,SE,145,6.0,7.0,99,0.01,,---,0.02,VWS V14.01,2013-10-07 10:13:00,
2013-10-07 06:18:00,67.5,67.2,30.07,SSE,158,3.0,10.0,99,0.01,,---,0.02,VWS V14.01,2013-10-07 10:18:00,
2013-10-07 06:23:00,67.5,67.2,30.07,South,181,1.0,9.0,99,0.01,,---,0.02,VWS V14.01,2013-10-07 10:23:00,
2013-10-07 06:29:00,67.6,67.3,30.07,SSE,156,4.0,9.0,99,0.01,,---,0.02,VWS V14.01,2013-10-07 10:29:00,
2013-10-07 06:34:00,67.6,67.3,30.07,SE,141,2.0,12.0,99,0.00,,---,0.02,VWS V14.01,2013-10-07 10:34:00,
2013-10-07 06:39:00,67.6,67.3,30.07,South,173,6.0,10.0,99,0.00,,---,0.02,VWS V14.01,2013-10-07 10:39:00,
2013-10-07 06:47:00,67.6,67.3,30.07,SSE,152,1.0,7.0,99,0.00,,---,0.02,VWS V14.01,2013-10-07 10:47:00,
2013-10-07 06:52:00,67.6,67.3,30.07,SE,146,5.0,7.0,99,0.00,,---,0.02,VWS V14.01,2013-10-07 10:52:00,
2013-10-07 06:57:00,67.5,67.2,30.07,ESE,108,1.0,9.0,99,0.00,,---,0.02,VWS V14.01,2013-10-07 10:57:00,
2013-10-07 07:02:00,67.5,67.2,30.07,SSE,160,2.0,7.0,99,0.00,,---,0.02,VWS V14.01,2013-10-07 11:02:00,
2013-10-07 07:07:00,67.5,67.2,30.07,SE,131,5.0,5.0,99,0.00,,---,0.02,VWS V14.01,2013-10-07 11:07:00,
2013-10-07 07:12:00,67.4,67.1,30.07,SSE,150,2.0,6.0,99,0.00,,---,0.02,VWS V14.01,2013-10-07 11:12:00,
2013-10-07 07:17:00,67.4,67.1,30.06,SSE,166,9.0,10.0,99,0.00,,---,0.02,VWS V14.01,2013-10-07 11:17:00,
2013-10-07 07:22:00,67.4,67.1,30.06,SE,137,3.0,11.0,99,0.00,,---,0.02,VWS V14.01,2013-10-07 11:22:00,
2013-10-07 07:27:00,67.5,67.2,30.07,SSE,156,3.0,10.0,99,0.00,,---,0.02,VWS V14.01,2013-10-07 11:27:00,
2013-10-07 07:32:00,67.5,67.2,30.07,SE,138,1.0,7.0,99,0.00,,---,0.02,VWS V14.01,2013-10-07 11:32:00,
2013-10-07 07:37:00,67.5,67.2,30.07,SSE,154,2.0,5.0,99,0.00,,---,0.02,VWS V14.01,2013-10-07 11:37:00,
2013-10-07 07:42:00,67.5,67.2,30.07,South,169,4.0,10.0,99,0.00,,---,0.02,VWS V14.01,2013-10-07 11:42:00,
2013-10-07 07:47:00,67.5,67.2,30.06,SE,137,3.0,11.0,99,0.00,,---,0.02,VWS V14.01,2013-10-07 11:47:00,
2013-10-07 07:52:00,67.6,67.3,30.06,SSE,158,5.0,9.0,99,0.00,,---,0.02,VWS V14.01,2013-10-07 11:52:00,
2013-10-07 07:57:00,67.7,67.4,30.06,SE,139,10.0,12.0,99,0.00,,---,0.02,VWS V14.01,2013-10-07 11:57:00,
2013-10-07 08:02:00,67.7,67.4,30.06,ESE,114,2.0,10.0,99,0.00,,---,0.02,VWS V14.01,2013-10-07 12:02:00,
2013-10-07 08:07:00,67.7,67.1,30.06,SSE,168,2.0,13.0,98,0.00,,---,0.02,VWS V14.01,2013-10-07 12:07:00,
2013-10-07 08:12:00,67.7,67.1,30.06,ESE,120,2.0,7.0,98,0.00,,---,0.02,VWS V14.01,2013-10-07 12:12:00,
2013-10-07 08:17:00,67.7,67.1,30.06,SE,141,2.0,10.0,98,0.00,,---,0.02,VWS V14.01,2013-10-07 12:17:00,
2013-10-07 08:22:00,67.8,67.2,30.06,SE,134,3.0,11.0,98,0.00,,---,0.02,VWS V14.01,2013-10-07 12:22:00,
2013-10-07 08:27:00,68.0,67.7,30.05,SSE,147,9.0,11.0,99,0.00,,---,0.02,VWS V14.01,2013-10-07 12:27:00,
2013-10-07 08:32:00,68.1,67.8,30.06,SE,126,4.0,10.0,99,0.00,,---,0.02,VWS V14.01,2013-10-07 12:32:00,
2013-10-07 08:37:00,68.3,67.7,30.06,SE,133,7.0,15.0,98,0.00,,---,0.02,VWS V14.01,2013-10-07 12:37:00,
2013-10-07 08:42:00,68.5,67.9,30.06,SSE,150,3.0,10.0,98,0.00,,---,0.02,VWS V14.01,2013-10-07 12:42:00,
2013-10-07 08:47:00,68.5,67.9,30.06,SSE,147,2.0,11.0,98,0.00,,---,0.02,VWS V14.01,2013-10-07 12:47:00,
2013-10-07 08:52:00,68.6,68.0,30.06,SE,128,1.0,11.0,98,0.00,,---,0.02,VWS V14.01,2013-10-07 12:52:00,
2013-10-07 08:58:00,68.6,68.0,30.05,SSE,156,4.0,11.0,98,0.01,,---,0.03,VWS V14.01,2013-10-07 12:58:00,
2013-10-07 09:03:00,69.1,68.5,30.05,SE,142,9.0,12.0,98,0.01,,---,0.03,VWS V14.01,2013-10-07 13:03:00,
2013-10-07 09:08:00,69.1,68.5,30.04,SE,141,7.0,12.0,98,0.01,,---,0.03,VWS V14.01,2013-10-07 13:08:00,
2013-10-07 09:13:00,68.8,68.2,30.04,SE,137,2.0,14.0,98,0.01,,---,0.03,VWS V14.01,2013-10-07 13:13:00,
2013-10-07 09:20:00,68.6,68.0,30.05,SE,141,13.0,13.0,98,0.01,,---,0.03,VWS V14.01,2013-10-07 13:20:00,
2013-10-07 09:25:00,68.5,67.9,30.04,SE,138,9.0,18.0,98,0.01,,---,0.03,VWS V14.01,2013-10-07 13:25:00,
2013-10-07 09:30:00,68.6,68.0,30.04,SSE,152,3.0,14.0,98,0.01,,---,0.03,VWS V14.01,2013-10-07 13:30:00,
2013-10-07 09:35:00,68.7,68.1,30.04,South,173,0.0,12.0,98,0.03,,---,0.05,VWS V14.01,2013-10-07 13:35:00,
2013-10-07 09:40:00,68.7,68.1,30.04,South,170,2.0,12.0,98,0.03,,---,0.05,VWS V14.01,2013-10-07 13:40:00,
2013-10-07 09:45:00,68.6,68.0,30.04,SE,140,9.0,13.0,98,0.03,,---,0.05,VWS V14.01,2013-10-07 13:45:00,
2013-10-07 09:50:00,68.5,67.9,30.04,SE,146,6.0,13.0,98,0.03,,---,0.05,VWS V14.01,2013-10-07 13:50:00,
2013-10-07 09:55:00,68.7,68.1,30.04,SE,146,4.0,13.0,98,0.03,,---,0.05,VWS V14.01,2013-10-07 13:55:00,
2013-10-07 10:00:00,68.9,68.3,30.04,South,187,1.0,10.0,98,0.02,,---,0.05,VWS V14.01,2013-10-07 14:00:00,
2013-10-07 10:05:00,69.4,69.1,30.04,SSE,166,7.0,13.0,99,0.02,,---,0.05,VWS V14.01,2013-10-07 14:05:00,
2013-10-07 10:10:00,69.6,69.0,30.03,SE,142,3.0,13.0,98,0.02,,---,0.05,VWS V14.01,2013-10-07 14:10:00,
2013-10-07 10:16:00,69.7,68.8,30.04,South,187,5.0,13.0,97,0.02,,---,0.05,VWS V14.01,2013-10-07 14:16:00,
2013-10-07 10:21:00,69.9,69.0,30.04,SSE,165,7.0,11.0,97,0.02,,---,0.05,VWS V14.01,2013-10-07 14:21:00,
2013-10-07 10:27:00,69.8,68.9,30.04,SE,133,6.0,13.0,97,0.02,,---,0.05,VWS V14.01,2013-10-07 14:27:00,
2013-10-07 10:32:00,69.7,68.8,30.03,South,172,3.0,10.0,97,0.02,,---,0.05,VWS V14.01,2013-10-07 14:32:00,
2013-10-07 10:37:00,69.5,68.3,30.03,SSE,167,3.0,12.0,96,0.01,,---,0.06,VWS V14.01,2013-10-07 14:37:00,
2013-10-07 10:42:00,69.0,67.8,30.03,SSW,208,7.0,19.0,96,0.05,,---,0.10,VWS V14.01,2013-10-07 14:42:00,
2013-10-07 10:47:00,68.4,67.2,30.03,SSE,164,4.0,14.0,96,0.05,,---,0.10,VWS V14.01,2013-10-07 14:47:00,
2013-10-07 10:52:00,67.9,66.7,30.03,South,176,6.0,13.0,96,0.05,,---,0.10,VWS V14.01,2013-10-07 14:52:00,
2013-10-07 10:57:00,67.6,66.7,30.03,South,170,5.0,16.0,97,0.05,,---,0.10,VWS V14.01,2013-10-07 14:57:00,
2013-10-07 11:02:00,67.6,66.7,30.03,South,176,4.0,15.0,97,0.05,,---,0.10,VWS V14.01,2013-10-07 15:02:00,
2013-10-07 11:07:00,67.6,66.7,30.02,SSE,147,5.0,11.0,97,0.05,,---,0.10,VWS V14.01,2013-10-07 15:07:00,
2013-10-07 11:12:00,67.7,67.1,30.02,SSE,156,5.0,14.0,98,0.05,,---,0.10,VWS V14.01,2013-10-07 15:12:00,
2013-10-07 11:17:00,67.8,67.2,30.02,SSE,155,8.0,13.0,98,0.05,,---,0.10,VWS V14.01,2013-10-07 15:17:00,
2013-10-07 11:22:00,68.0,67.4,30.02,South,180,1.0,10.0,98,0.05,,---,0.10,VWS V14.01,2013-10-07 15:22:00,
2013-10-07 11:27:00,68.2,67.3,30.02,SE,135,4.0,9.0,97,0.05,,---,0.10,VWS V14.01,2013-10-07 15:27:00,
2013-10-07 11:32:00,68.3,67.4,30.02,SSE,157,1.0,9.0,97,0.05,,---,0.10,VWS V14.01,2013-10-07 15:32:00,
2013-10-07 11:37:00,68.5,67.9,30.01,SSE,147,3.0,9.0,98,0.05,,---,0.10,VWS V14.01,2013-10-07 15:37:00,
2013-10-07 11:42:00,68.8,68.2,30.01,SE,133,10.0,10.0,98,0.01,,---,0.10,VWS V14.01,2013-10-07 15:42:00,
2013-10-07 11:47:00,68.9,68.0,30.01,SSE,152,1.0,13.0,97,0.00,,---,0.10,VWS V14.01,2013-10-07 15:47:00,
2013-10-07 11:52:00,69.0,68.1,30.01,SSE,164,5.0,11.0,97,0.00,,---,0.10,VWS V14.01,2013-10-07 15:52:00,
2013-10-07 11:57:00,69.2,68.3,30.01,SSE,168,3.0,11.0,97,0.00,,---,0.10,VWS V14.01,2013-10-07 15:57:00,
2013-10-07 12:03:00,69.4,68.5,30.01,SSE,168,4.0,10.0,97,0.00,,---,0.10,VWS V14.01,2013-10-07 16:03:00,
2013-10-07 12:08:00,69.5,68.3,30.01,SE,146,4.0,17.0,96,0.00,,---,0.10,VWS V14.01,2013-10-07 16:08:00,
2013-10-07 12:17:00,69.7,68.2,30.00,South,181,6.0,18.0,95,0.00,,---,0.10,VWS V14.01,2013-10-07 16:17:00,
2013-10-07 12:22:00,69.6,68.1,30.00,SE,142,6.0,13.0,95,0.00,,---,0.10,VWS V14.01,2013-10-07 16:22:00,
2013-10-07 12:28:00,69.3,67.5,30.00,SE,146,5.0,16.0,94,0.00,,---,0.10,VWS V14.01,2013-10-07 16:28:00,
2013-10-07 12:33:00,69.4,67.6,30.00,SSE,157,11.0,19.0,94,0.00,,---,0.10,VWS V14.01,2013-10-07 16:33:00,
2013-10-07 12:38:00,70.0,68.2,29.99,South,176,9.0,16.0,94,0.00,,---,0.10,VWS V14.01,2013-10-07 16:38:00,
2013-10-07 12:43:00,70.5,67.8,29.99,South,183,4.0,11.0,91,0.00,,---,0.10,VWS V14.01,2013-10-07 16:43:00,
2013-10-07 12:48:00,70.6,67.8,29.99,South,177,3.0,15.0,91,0.00,,---,0.10,VWS V14.01,2013-10-07 16:48:00,
2013-10-07 12:53:00,71.1,68.3,29.99,South,187,2.0,10.0,91,0.00,,---,0.10,VWS V14.01,2013-10-07 16:53:00,
2013-10-07 12:58:00,71.7,68.3,29.99,SE,145,4.0,14.0,89,0.00,,---,0.10,VWS V14.01,2013-10-07 16:58:00,
2013-10-07 13:03:00,71.9,68.8,29.98,South,182,5.0,13.0,90,0.00,,---,0.10,VWS V14.01,2013-10-07 17:03:00,
2013-10-07 13:08:00,72.2,69.1,29.98,SSE,156,2.0,9.0,90,0.00,,---,0.10,VWS V14.01,2013-10-07 17:08:00,
2013-10-07 13:14:00,72.6,69.5,29.97,SSE,160,5.0,18.0,90,0.00,,---,0.10,VWS V14.01,2013-10-07 17:14:00,
2013-10-07 13:19:00,72.4,69.0,29.97,South,174,3.0,15.0,89,0.00,,---,0.10,VWS V14.01,2013-10-07 17:19:00,
2013-10-07 13:24:00,71.8,68.7,29.97,SSE,160,12.0,17.0,90,0.00,,---,0.10,VWS V14.01,2013-10-07 17:24:00,
2013-10-07 13:29:00,71.4,68.6,29.96,SSE,157,2.0,14.0,91,0.00,,---,0.10,VWS V14.01,2013-10-07 17:29:00,
2013-10-07 13:34:00,71.2,68.4,29.96,South,177,3.0,19.0,91,0.00,,---,0.10,VWS V14.01,2013-10-07 17:34:00,
2013-10-07 13:39:00,71.1,68.3,29.96,South,180,3.0,14.0,91,0.00,,---,0.10,VWS V14.01,2013-10-07 17:39:00,
2013-10-07 13:44:00,71.1,68.3,29.96,South,172,5.0,14.0,91,0.00,,---,0.10,VWS V14.01,2013-10-07 17:44:00,
2013-10-07 13:50:00,71.0,68.6,29.96,South,172,4.0,9.0,92,0.00,,---,0.10,VWS V14.01,2013-10-07 17:50:00,
2013-10-07 13:55:00,70.9,68.8,29.96,South,174,5.0,13.0,93,0.00,,---,0.10,VWS V14.01,2013-10-07 17:55:00,
2013-10-07 14:00:00,70.9,68.8,29.96,South,183,1.0,5.0,93,0.00,,---,0.10,VWS V14.01,2013-10-07 18:00:00,
2013-10-07 14:05:00,71.0,68.6,29.96,South,174,9.0,11.0,92,0.00,,---,0.10,VWS V14.01,2013-10-07 18:05:00,
2013-10-07 14:10:00,71.2,68.8,29.95,South,169,5.0,5.0,92,0.00,,---,0.10,VWS V14.01,2013-10-07 18:10:00,
2013-10-07 14:15:00,71.6,68.8,29.95,South,179,5.0,5.0,91,0.00,,---,0.10,VWS V14.01,2013-10-07 18:15:00,
2013-10-07 14:20:00,71.8,69.0,29.95,SE,139,4.0,4.0,91,0.00,,---,0.10,VWS V14.01,2013-10-07 18:20:00,
2013-10-07 14:25:00,72.1,69.0,29.95,South,186,5.0,14.0,90,0.00,,---,0.10,VWS V14.01,2013-10-07 18:25:00,
2013-10-07 14:30:00,72.2,69.1,29.95,SSE,152,6.0,13.0,90,0.00,,---,0.10,VWS V14.01,2013-10-07 18:30:00,
2013-10-07 14:36:00,72.1,69.0,29.95,SE,143,4.0,18.0,90,0.00,,---,0.10,VWS V14.01,2013-10-07 18:36:00,
2013-10-07 14:41:00,72.1,69.3,29.94,South,172,6.0,13.0,91,0.00,,---,0.10,VWS V14.01,2013-10-07 18:41:00,
2013-10-07 14:46:00,72.6,69.2,29.94,SE,135,4.0,12.0,89,0.00,,---,0.10,VWS V14.01,2013-10-07 18:46:00,
2013-10-07 14:51:00,72.9,69.5,29.94,South,174,7.0,10.0,89,0.00,,---,0.10,VWS V14.01,2013-10-07 18:51:00,
2013-10-07 14:56:00,72.8,69.4,29.94,South,171,4.0,10.0,89,0.00,,---,0.10,VWS V14.01,2013-10-07 18:56:00,
2013-10-07 15:01:00,72.9,69.5,29.94,South,179,10.0,14.0,89,0.00,,---,0.10,VWS V14.01,2013-10-07 19:01:00,
2013-10-07 15:06:00,72.8,69.4,29.94,SSE,150,5.0,16.0,89,0.00,,---,0.10,VWS V14.01,2013-10-07 19:06:00,
2013-10-07 15:11:00,73.0,69.6,29.94,South,191,7.0,13.0,89,0.00,,---,0.10,VWS V14.01,2013-10-07 19:11:00,
2013-10-07 15:16:00,72.9,69.1,29.94,SSW,199,5.0,14.0,88,0.00,,---,0.10,VWS V14.01,2013-10-07 19:16:00,
2013-10-07 15:21:00,72.8,69.4,29.94,SE,141,7.0,11.0,89,0.00,,---,0.10,VWS V14.01,2013-10-07 19:21:00,
2013-10-07 15:26:00,72.7,68.9,29.94,SSE,168,10.0,14.0,88,0.00,,---,0.10,VWS V14.01,2013-10-07 19:26:00,
2013-10-07 15:31:00,72.6,69.2,29.93,SW,226,3.0,12.0,89,0.00,,---,0.10,VWS V14.01,2013-10-07 19:31:00,
2013-10-07 15:36:00,72.7,69.3,29.93,SSE,154,3.0,11.0,89,0.00,,---,0.10,VWS V14.01,2013-10-07 19:36:00,
2013-10-07 15:41:00,72.7,68.9,29.93,SE,125,3.0,12.0,88,0.00,,---,0.10,VWS V14.01,2013-10-07 19:41:00,
2013-10-07 15:46:00,72.2,68.8,29.93,South,181,3.0,17.0,89,0.00,,---,0.10,VWS V14.01,2013-10-07 19:46:00,
2013-10-07 15:51:00,71.9,68.8,29.93,South,177,5.0,13.0,90,0.00,,---,0.10,VWS V14.01,2013-10-07 19:51:00,
2013-10-07 15:58:00,72.1,69.0,29.93,South,183,5.0,18.0,90,0.00,,---,0.10,VWS V14.01,2013-10-07 19:58:00,
2013-10-07 16:03:00,72.1,68.7,29.93,SE,145,6.0,12.0,89,0.00,,---,0.10,VWS V14.01,2013-10-07 20:03:00,
2013-10-07 16:08:00,71.7,68.3,29.93,South,189,4.0,15.0,89,0.00,,---,0.10,VWS V14.01,2013-10-07 20:08:00,
2013-10-07 16:13:00,71.5,68.4,29.93,SSE,152,4.0,14.0,90,0.00,,---,0.10,VWS V14.01,2013-10-07 20:13:00,
2013-10-07 16:18:00,71.3,68.5,29.93,SE,141,6.0,11.0,91,0.00,,---,0.10,VWS V14.01,2013-10-07 20:18:00,
2013-10-07 16:23:00,71.3,68.5,29.92,South,175,7.0,10.0,91,0.00,,---,0.10,VWS V14.01,2013-10-07 20:23:00,
2013-10-07 16:28:00,71.3,68.5,29.92,SSW,206,4.0,18.0,91,0.00,,---,0.10,VWS V14.01,2013-10-07 20:28:00,
2013-10-07 16:34:00,71.2,68.4,29.93,SSE,156,3.0,14.0,91,0.00,,---,0.10,VWS V14.01,2013-10-07 20:34:00,
2013-10-07 16:39:00,71.1,68.3,29.92,SSE,167,3.0,13.0,91,0.00,,---,0.10,VWS V14.01,2013-10-07 20:39:00,
2013-10-07 16:44:00,71.1,68.7,29.92,South,173,10.0,12.0,92,0.00,,---,0.10,VWS V14.01,2013-10-07 20:44:00,
2013-10-07 16:49:00,71.0,68.6,29.92,SSE,166,3.0,13.0,92,0.00,,---,0.10,VWS V14.01,2013-10-07 20:49:00,
2013-10-07 16:54:00,70.9,68.5,29.92,South,185,1.0,12.0,92,0.00,,---,0.10,VWS V14.01,2013-10-07 20:54:00,
2013-10-07 16:59:00,70.8,68.4,29.93,South,179,7.0,12.0,92,0.00,,---,0.10,VWS V14.01,2013-10-07 20:59:00,
2013-10-07 17:04:00,70.8,68.4,29.93,SSE,160,3.0,11.0,92,0.00,,---,0.10,VWS V14.01,2013-10-07 21:04:00,
2013-10-07 17:09:00,70.8,68.4,29.93,South,191,3.0,10.0,92,0.00,,---,0.10,VWS V14.01,2013-10-07 21:09:00,
2013-10-07 17:14:00,70.8,68.4,29.93,SSE,157,3.0,16.0,92,0.00,,---,0.10,VWS V14.01,2013-10-07 21:14:00,
2013-10-07 17:19:00,70.7,68.3,29.93,SE,145,4.0,14.0,92,0.00,,---,0.10,VWS V14.01,2013-10-07 21:19:00,
2013-10-07 17:24:00,70.7,68.3,29.93,South,184,3.0,12.0,92,0.00,,---,0.10,VWS V14.01,2013-10-07 21:24:00,
2013-10-07 17:31:00,70.5,68.1,29.93,South,173,5.0,10.0,92,0.00,,---,0.10,VWS V14.01,2013-10-07 21:31:00,
2013-10-07 17:36:00,70.3,67.9,29.93,South,181,4.0,9.0,92,0.00,,---,0.10,VWS V14.01,2013-10-07 21:36:00,
2013-10-07 17:41:00,70.2,68.1,29.92,South,172,5.0,13.0,93,0.00,,---,0.10,VWS V14.01,2013-10-07 21:41:00,
2013-10-07 17:46:00,70.1,68.0,29.93,SSE,166,5.0,11.0,93,0.00,,---,0.10,VWS V14.01,2013-10-07 21:46:00,
2013-10-07 17:51:00,69.8,67.7,29.92,South,170,4.0,9.0,93,0.00,,---,0.10,VWS V14.01,2013-10-07 21:51:00,
2013-10-07 17:56:00,69.5,67.7,29.93,SSE,152,13.0,14.0,94,0.00,,---,0.10,VWS V14.01,2013-10-07 21:56:00,
2013-10-07 18:01:00,69.2,67.4,29.92,SSE,162,5.0,13.0,94,0.00,,---,0.10,VWS V14.01,2013-10-07 22:01:00,
2013-10-07 18:06:00,69.0,67.2,29.92,South,173,9.0,11.0,94,0.00,,---,0.10,VWS V14.01,2013-10-07 22:06:00,
2013-10-07 18:11:00,68.9,67.4,29.92,SSW,210,6.0,17.0,95,0.00,,---,0.10,VWS V14.01,2013-10-07 22:11:00,
2013-10-07 18:16:00,69.0,67.5,29.92,SSE,168,14.0,14.0,95,0.00,,---,0.10,VWS V14.01,2013-10-07 22:16:00,
2013-10-07 18:21:00,68.9,67.4,29.92,SSE,166,6.0,9.0,95,0.00,,---,0.10,VWS V14.01,2013-10-07 22:21:00,
2013-10-07 18:26:00,68.8,67.3,29.92,South,174,3.0,7.0,95,0.00,,---,0.10,VWS V14.01,2013-10-07 22:26:00,
2013-10-07 18:31:00,68.7,67.2,29.92,South,191,5.0,9.0,95,0.00,,---,0.10,VWS V14.01,2013-10-07 22:31:00,
2013-10-07 18:36:00,68.6,67.1,29.92,South,175,3.0,10.0,95,0.00,,---,0.10,VWS V14.01,2013-10-07 22:36:00,
2013-10-07 18:41:00,68.6,67.1,29.92,SW,218,9.0,12.0,95,0.00,,---,0.10,VWS V14.01,2013-10-07 22:41:00,
2013-10-07 18:46:00,68.7,67.2,29.92,SE,143,3.0,15.0,95,0.00,,---,0.10,VWS V14.01,2013-10-07 22:46:00,
2013-10-07 18:51:00,68.6,67.1,29.92,SSE,147,5.0,15.0,95,0.00,,---,0.10,VWS V14.01,2013-10-07 22:51:00,
2013-10-07 18:56:00,68.5,67.0,29.92,SSE,155,6.0,12.0,95,0.00,,---,0.10,VWS V14.01,2013-10-07 22:56:00,
2013-10-07 19:03:00,68.5,67.0,29.92,South,179,6.0,15.0,95,0.00,,---,0.10,VWS V14.01,2013-10-07 23:03:00,
2013-10-07 19:08:00,68.6,67.1,29.92,SSW,202,7.0,15.0,95,0.00,,---,0.10,VWS V14.01,2013-10-07 23:08:00,
2013-10-07 19:13:00,68.6,67.1,29.92,South,174,9.0,12.0,95,0.00,,---,0.10,VWS V14.01,2013-10-07 23:13:00,
2013-10-07 19:18:00,68.6,67.4,29.92,South,188,7.0,13.0,96,0.00,,---,0.10,VWS V14.01,2013-10-07 23:18:00,
2013-10-07 19:24:00,68.6,67.4,29.92,SSE,150,7.0,14.0,96,0.00,,---,0.10,VWS V14.01,2013-10-07 23:24:00,
2013-10-07 19:29:00,68.7,67.5,29.92,South,174,9.0,13.0,96,0.00,,---,0.10,VWS V14.01,2013-10-07 23:29:00,
2013-10-07 19:34:00,68.8,67.3,29.92,SSE,152,14.0,15.0,95,0.00,,---,0.10,VWS V14.01,2013-10-07 23:34:00,
2013-10-07 19:39:00,68.8,67.3,29.92,South,182,11.0,15.0,95,0.00,,---,0.10,VWS V14.01,2013-10-07 23:39:00,
2013-10-07 19:46:00,68.8,67.3,29.93,SSW,204,6.0,11.0,95,0.00,,---,0.10,VWS V14.01,2013-10-07 23:46:00,
2013-10-07 19:51:00,68.8,67.3,29.93,SW,215,4.0,11.0,95,0.00,,---,0.10,VWS V14.01,2013-10-07 23:51:00,
2013-10-07 19:56:00,68.7,67.2,29.92,South,181,3.0,11.0,95,0.00,,---,0.10,VWS V14.01,2013-10-07 23:56:00,
2013-10-07 20:01:00,68.7,67.2,29.92,SSW,197,5.0,12.0,95,0.00,,---,0.10,VWS V14.01,2013-10-08 00:01:00,
2013-10-07 20:06:00,68.7,67.2,29.92,South,176,6.0,12.0,95,0.00,,---,0.10,VWS V14.01,2013-10-08 00:06:00,
2013-10-07 20:11:00,68.7,67.2,29.92,South,179,10.0,10.0,95,0.00,,---,0.10,VWS V14.01,2013-10-08 00:11:00,
2013-10-07 20:16:00,68.6,67.1,29.92,SSE,149,2.0,10.0,95,0.00,,---,0.10,VWS V14.01,2013-10-08 00:16:00,
2013-10-07 20:21:00,68.6,67.1,29.92,SSW,208,6.0,11.0,95,0.00,,---,0.10,VWS V14.01,2013-10-08 00:21:00,
2013-10-07 20:26:00,68.6,67.1,29.91,South,187,3.0,11.0,95,0.00,,---,0.10,VWS V14.01,2013-10-08 00:26:00,
2013-10-07 20:31:00,68.6,67.1,29.91,South,188,4.0,11.0,95,0.00,,---,0.10,VWS V14.01,2013-10-08 00:31:00,
2013-10-07 20:36:00,68.7,67.2,29.91,South,170,4.0,13.0,95,0.00,,---,0.10,VWS V14.01,2013-10-08 00:36:00,
2013-10-07 20:41:00,68.6,67.1,29.91,SSW,199,5.0,15.0,95,0.00,,---,0.10,VWS V14.01,2013-10-08 00:41:00,
2013-10-07 20:46:00,68.5,67.3,29.90,South,177,8.0,9.0,96,0.00,,---,0.10,VWS V14.01,2013-10-08 00:46:00,
2013-10-07 20:51:00,68.3,67.1,29.90,South,174,4.0,12.0,96,0.00,,---,0.10,VWS V14.01,2013-10-08 00:51:00,
2013-10-07 20:56:00,68.2,67.0,29.90,SSW,195,9.0,10.0,96,0.00,,---,0.10,VWS V14.01,2013-10-08 00:56:00,
2013-10-07 21:01:00,68.1,66.9,29.89,SW,216,6.0,14.0,96,0.00,,---,0.10,VWS V14.01,2013-10-08 01:01:00,
2013-10-07 21:06:00,68.1,66.9,29.89,South,179,4.0,21.0,96,0.00,,---,0.10,VWS V14.01,2013-10-08 01:06:00,
2013-10-07 21:11:00,68.1,67.2,29.88,SSW,195,10.0,13.0,97,0.00,,---,0.10,VWS V14.01,2013-10-08 01:11:00,
2013-10-07 21:17:00,68.3,67.4,29.87,South,172,11.0,18.0,97,0.00,,---,0.10,VWS V14.01,2013-10-08 01:17:00,
2013-10-07 21:22:00,68.5,67.6,29.87,SSE,160,5.0,16.0,97,0.00,,---,0.10,VWS V14.01,2013-10-08 01:22:00,
2013-10-07 21:27:00,68.7,67.8,29.87,South,181,4.0,10.0,97,0.00,,---,0.10,VWS V14.01,2013-10-08 01:27:00,
2013-10-07 21:32:00,68.9,67.7,29.88,SSE,157,5.0,14.0,96,0.00,,---,0.10,VWS V14.01,2013-10-08 01:32:00,
2013-10-07 21:37:00,68.9,67.7,29.88,SE,144,7.0,12.0,96,0.00,,---,0.10,VWS V14.01,2013-10-08 01:37:00,
2013-10-07 21:42:00,68.8,67.6,29.87,South,184,9.0,14.0,96,0.00,,---,0.10,VWS V14.01,2013-10-08 01:42:00,
2013-10-07 21:47:00,68.8,67.6,29.88,South,184,4.0,11.0,96,0.00,,---,0.10,VWS V14.01,2013-10-08 01:47:00,
2013-10-07 21:52:00,68.8,67.9,29.88,South,173,2.0,11.0,97,0.00,,---,0.10,VWS V14.01,2013-10-08 01:52:00,
2013-10-07 21:57:00,68.7,67.5,29.88,South,181,5.0,11.0,96,0.00,,---,0.10,VWS V14.01,2013-10-08 01:57:00,
2013-10-07 22:02:00,68.6,67.4,29.90,SSE,161,4.0,11.0,96,0.00,,---,0.10,VWS V14.01,2013-10-08 02:02:00,
2013-10-07 22:08:00,68.4,67.2,29.90,SW,231,7.0,9.0,96,0.00,,---,0.10,VWS V14.01,2013-10-08 02:08:00,
2013-10-07 22:13:00,68.2,67.0,29.90,South,183,2.0,10.0,96,0.00,,---,0.10,VWS V14.01,2013-10-08 02:13:00,
2013-10-07 22:18:00,68.2,67.3,29.90,SSW,211,3.0,16.0,97,0.00,,---,0.10,VWS V14.01,2013-10-08 02:18:00,
2013-10-07 22:23:00,68.2,67.0,29.89,SSW,208,5.0,16.0,96,0.00,,---,0.10,VWS V14.01,2013-10-08 02:23:00,
2013-10-07 22:28:00,68.2,67.0,29.90,SW,229,6.0,14.0,96,0.00,,---,0.10,VWS V14.01,2013-10-08 02:28:00,
2013-10-07 22:33:00,67.9,66.7,29.90,SW,222,14.0,25.0,96,0.00,,---,0.10,VWS V14.01,2013-10-08 02:33:00,
2013-10-07 22:38:00,67.6,66.7,29.91,SW,235,16.0,18.0,97,0.00,,---,0.10,VWS V14.01,2013-10-08 02:38:00,
2013-10-07 22:43:00,67.5,66.6,29.91,SW,214,5.0,17.0,97,0.00,,---,0.10,VWS V14.01,2013-10-08 02:43:00,
2013-10-07 22:48:00,67.3,66.4,29.90,SW,226,2.0,15.0,97,0.00,,---,0.10,VWS V14.01,2013-10-08 02:48:00,
2013-10-07 22:53:00,67.1,66.2,29.90,WSW,238,4.0,13.0,97,0.00,,---,0.10,VWS V14.01,2013-10-08 02:53:00,
2013-10-07 22:58:00,67.0,66.1,29.90,South,185,5.0,15.0,97,0.00,,---,0.10,VWS V14.01,2013-10-08 02:58:00,
2013-10-07 23:03:00,66.8,65.9,29.90,SW,231,2.0,9.0,97,0.00,,---,0.10,VWS V14.01,2013-10-08 03:03:00,
2013-10-07 23:08:00,66.6,65.7,29.90,WSW,237,7.0,15.0,97,0.00,,---,0.10,VWS V14.01,2013-10-08 03:08:00,
2013-10-07 23:13:00,66.5,65.6,29.90,SW,218,6.0,14.0,97,0.00,,---,0.10,VWS V14.01,2013-10-08 03:13:00,
2013-10-07 23:18:00,66.4,65.5,29.90,SSW,207,3.0,11.0,97,0.00,,---,0.10,VWS V14.01,2013-10-08 03:18:00,
2013-10-07 23:23:00,66.3,65.4,29.89,SW,231,2.0,12.0,97,0.00,,---,0.10,VWS V14.01,2013-10-08 03:23:00,
2013-10-07 23:28:00,66.2,65.6,29.90,SW,231,2.0,10.0,98,0.00,,---,0.10,VWS V14.01,2013-10-08 03:28:00,
2013-10-07 23:33:00,66.2,65.6,29.91,SW,235,7.0,11.0,98,0.00,,---,0.10,VWS V14.01,2013-10-08 03:33:00,
2013-10-07 23:38:00,66.2,65.6,29.90,WSW,246,6.0,12.0,98,0.01,,---,0.11,VWS V14.01,2013-10-08 03:38:00,
2013-10-07 23:43:00,66.3,65.7,29.91,WSW,239,6.0,16.0,98,0.01,,---,0.11,VWS V14.01,2013-10-08 03:43:00,
2013-10-07 23:48:00,66.3,65.7,29.91,WSW,241,4.0,13.0,98,0.01,,---,0.11,VWS V14.01,2013-10-08 03:48:00,
2013-10-07 23:55:00,66.2,65.6,29.90,WSW,240,4.0,5.0,98,0.01,,---,0.11,VWS V14.01,2013-10-08 03:55:00,